Location: Rochester
(43.1610°N, 77.6109°W)
Time: 09:49:58
(UTC-05:00)

CUTE 1.7 + AOD 2 - Pass Details

Date: 23 October 2021
Orbit: 592 x 611 km, 97.6° (Epoch: 04 December)

Event Time Altitude Azimuth Distance (km) Brightness Sun altitude
Rises 06:57:47 0° 350° (N) 2,885 ? -7.3°
Reaches altitude 10° 07:01:41 10° 314° (NW) 1,973 ? -6.6°
Maximum altitude 07:02:45 11° 300° (WNW) 1,916 ? -6.4°
Drops below altitude 10° 07:03:49 10° 285° (WNW) 1,969 ? -6.3°
Enters shadow 07:05:38 - 264° (W) 2,283 ? -5.9°
